Flag for Kenya Weather past 2 weeks in Nairobi, Kenya

Now
61 °F

Broken clouds.


Feels Like: 61 °F
Forecast: 58 / 76 °F
Wind: 6 mph from Northeast

Location: Nairobi / Dagoretti


UV Index: 10 (Very high)

Visibility: N/A


Pressure: 30.21 "Hg

Humidity: 94%

Dew point: 59 °F

Location of NairobiLocation

Historic Weather in Nairobi

°F

Nairobi temperature yesterday

Maximum temperature yesterday: 73 °F (at 2:00 PM)
Minimum temperature yesterday: 61 °F (at 6:00 AM)
Average temperature yesterday: 66 °F

Past Weeks' High & Low Weather Summary

 TemperatureHumidityPressure
High77 °F (Apr 10, 4:00 PM)100% (Apr 10, 6:00 AM)30.24 "Hg (Apr 10, 6:00 AM)
Low59 °F (Apr 10, 6:00 AM)36% (Apr 10, 4:00 PM)30.07 "Hg (Apr 17, 4:00 PM)
Average66 °F78%30.18 "Hg
* Reported Apr 10 6:00 AM — Apr 25 6:00 AM, Nairobi, Weather by CustomWeather, © 2014

Note: Actual official high and low records may vary slightly from our data, if they occured in-between our weather recording intervals... More about our weather records

Advertising

Historic Weather Conditions — Data for Previous 24 hours

 ConditionsComfort  
Time TempWeatherWind HumidityBarometerVisibility
6:00 AM
Apr 25
61 °FPartly cloudy.7 mph94%30.18 "HgN/A
5:00 AM61 °FPartly cloudy.7 mph94%30.15 "HgN/A
3:00 AM61 °FLight rain. Partly cloudy.5 mph100%30.15 "HgN/A
2:00 AM61 °FLight rain. Partly cloudy.5 mph100%30.18 "HgN/A
1:00 AM63 °FLight rain. Partly cloudy.6 mph94%30.18 "HgN/A
12:00 AM63 °FLight rain. Partly cloudy.13 mph94%30.21 "HgN/A
9:00 PM
Apr 24
63 °FPassing clouds.7 mph94%30.18 "HgN/A
8:00 PM64 °FPassing clouds.7 mph83%30.15 "HgN/A
7:00 PM68 °FPassing clouds.8 mph73%30.15 "HgN/A
6:00 PM70 °FPartly sunny.13 mph69%30.15 "HgN/A
5:00 PM72 °FPartly sunny.9 mph65%30.12 "HgN/A
4:00 PM73 °FPartly sunny.8 mph61%30.12 "HgN/A
3:00 PM72 °FPartly sunny.12 mph61%30.15 "HgN/A
2:00 PM73 °FBroken clouds.14 mph53%30.15 "HgN/A
1:00 PM72 °FPartly sunny.15 mph61%30.18 "HgN/A
12:00 PM70 °FPartly sunny.12 mph69%30.21 "HgN/A
11:00 AM66 °FBroken clouds.9 mph88%30.21 "HgN/A
10:00 AM63 °FLight rain. Broken clouds.8 mph94%30.24 "HgN/A
9:00 AM61 °FMostly cloudy.7 mph94%30.24 "HgN/A
8:00 AM61 °FLight rain. More clouds than sun.5 mph94%30.21 "HgN/A
7:00 AM61 °FMostly cloudy.7 mph94%30.18 "HgN/A
Weather by CustomWeather, © 2014

See weather overview